This is the latest recevied weather packets stored in our database for station/object XE2RCS-1. If no packets are shown the sender has not sent any weather packets the latest 10 day(s).
| Time | Temp. | Humidity | Pressure | Rain* | Wind** | Luminosity | Snow |
|---|---|---|---|---|---|---|---|
| 1787885867 | 25° C | 10% | - | 0 mm | - | - | - |
| 1787885266 | 25° C | 10% | - | 0 mm | - | - | - |
| 1787884665 | 20° C | 56% | 1017 hPa | 0 mm | - | - | - |
| 1787884066 | 21.11° C | 56% | 1018 hPa | 0 mm | - | - | - |
| 1787883464 | 22.22° C | 56% | 1018 hPa | 0 mm | - | - | - |
| 1787882863 | 23.33° C | 56% | 1018 hPa | 0 mm | - | - | - |
| 1787882263 | 24.44° C | 56% | 1017 hPa | 0 mm | - | - | - |
| 1787881662 | 27.22° C | 45% | 1017 hPa | 0 mm | - | - | - |
| 1787881061 | 27.22° C | 45% | 1017 hPa | 0 mm | - | - | - |
| 1787880460 | 21.11° C | 42% | 1018 hPa | 0 mm | - | - | - |
| 1787879860 | 22.22° C | 42% | 1018 hPa | 0 mm | - | - | - |
| 1787879260 | 23.33° C | 42% | 1016 hPa | 0 mm | - | - | - |
| 1787878658 | 23.33° C | 42% | 1016 hPa | 0 mm | - | - | - |
| 1787878058 | 24.44° C | 42% | 1016 hPa | 0 mm | - | - | - |
| 1787877457 | 25.56° C | 42% | 1016 hPa | 0 mm | - | - | - |
| 1787876856 | 26.67° C | 42% | 1018 hPa | 0 mm | - | - | - |
| 1787876256 | 26.67° C | 43% | 1018 hPa | 0 mm | - | - | - |
| 1787875655 | 24.44° C | 78% | 1018 hPa | 0 mm | - | - | - |
| 1787875055 | 25.56° C | 78% | 1016 hPa | 0 mm | - | - | - |
| 1787874454 | 26.67° C | 78% | 1016 hPa | 0 mm | - | - | - |
| 1787873853 | 27.78° C | 78% | 1016 hPa | 0 mm | - | - | - |
| 1787873253 | 27.78° C | 59% | 1017 hPa | 0 mm | - | - | - |
| 1787872652 | 27.78° C | 55% | 1017 hPa | 0 mm | - | - | - |
| 1787872051 | 27.78° C | 45% | 1017 hPa | 0 mm | - | - | - |
| 1787871451 | 27.78° C | 38% | 1015 hPa | 0 mm | - | - | - |
* Rain latest hour (hover to see other rain measurements)
** Current wind speed in m/s (hover to see current wind gust speed)